Temperature
5 3 2 3 3 4 4 4 4 4 4 4 3 3 4 4 4 4 4 4 4 5 5 5 5 5 5 5 5 5 5 5 5 6 6 6 7 7 7 7 8 8 8 8
2 2 3 4 4 4 4 4 3 3 4 4 3 2 3 3 3 4 4 4 4 4 4 5 5 5 5 5 5 5 5 5 5 5 5 5 6 6 7 7 7 7 7 8
3 3 4 4 3 3 3 3 3 3 2 3 2 2 3 3 3 3 4 4 4 4 4 4 4 4 4 4 4 4 4 4 4 5 5 5 5 6 6 6 7 7 7 7
2 2 3 3 3 3 3 3 3 2 2 1 2 2 2 2 2 2 2 2 3 3 3 4 4 4 4 4 4 4 4 4 4 4 4 4 5 5 5 6 6 6 7 7
1 2 2 2 2 2 2 2 2 2 1 0 1 1 2 1 2 1 1 1 2 2 3 3 3 3 3 3 3 3 3 3 3 4 4 4 4 5 5 5 5 6 6 6
1 1 1 1 2 2 1 1 1 -0 -0 1 1 1 1 1 1 1 1 1 1 2 2 2 2 2 2 3 3 3 3 3 3 3 3 4 4 4 4 5 5 5 5 6
1 1 1 1 1 1 0 0 0 1 0 1 1 1 1 0 0 0 0 1 1 1 1 2 2 2 2 2 2 2 2 2 3 3 3 3 3 4 4 4 4 4 5 5
0 1 0 0 0 -0 -0 -0 1 1 1 1 0 0 0 -0 -0 0 1 1 1 1 1 1 1 1 1 1 1 2 2 2 2 2 2 3 3 3 3 3 4 4 4 4
-0 0 0 0 0 0 -0 -1 -1 -1 -1 -1 -0 -1 -1 -0 -1 -1 -1 -0 -0 0 0 1 1 1 1 1 1 1 1 2 2 2 2 2 2 3 3 3 3 3 3 3
-1 -1 -1 -0 0 -0 -1 -1 -2 -2 -1 -0 -1 -1 -1 -1 -1 -1 -1 -1 -0 -0 -0 0 0 0 0 1 1 1 1 1 1 1 1 2 2 2 2 3 3 3 3 3
-2 -2 -2 -1 -2 -1 -2 -2 -2 -2 -2 -1 -1 -0 -1 -2 -2 -2 -2 -1 -1 -1 -1 -0 -0 0 -0 0 0 0 0 0 1 1 1 1 1 2 2 2 2 3 3 3
-3 -3 -3 -2 -2 -2 -2 -3 -3 -2 -2 -3 -2 -1 -1 -2 -2 -2 -1 -1 -1 -1 -1 -1 -1 -1 -0 -0 -0 -0 -0 -0 -0 0 0 1 1 1 2 2 2 2 2 2
-3 -3 -2 -1 -2 -3 -3 -3 -4 -4 -3 -4 -3 -1 -2 -3 -3 -2 -2 -2 -2 -2 -2 -2 -1 -1 -1 -1 -1 -1 -1 -1 -0 -0 -0 0 1 1 1 1 2 2 2 2
-2 -4 -3 -1 -1 -3 -4 -4 -4 -4 -4 -4 -3 -2 -2 -3 -4 -3 -2 -2 -2 -2 -2 -2 -2 -2 -2 -1 -1 -1 -1 -1 -1 -1 -1 -0 0 0 1 1 1 1 1 1
-3 -4 -4 -4 -3 -3 -4 -4 -4 -4 -4 -4 -3 -3 -3 -4 -4 -3 -3 -3 -3 -3 -3 -3 -3 -3 -2 -2 -2 -2 -2 -1 -1 -1 -1 -1 -0 -0 0 0 1 1 1 1
-5 -5 -5 -4 -4 -4 -3 -3 -4 -4 -4 -4 -4 -3 -4 -3 -3 -4 -4 -4 -4 -4 -4 -4 -4 -3 -3 -3 -2 -2 -2 -2 -1 -1 -1 -1 -1 -1 -0 -0 -0 0 0 1
-5 -6 -5 -5 -5 -4 -4 -4 -4 -4 -5 -5 -4 -4 -5 -5 -5 -5 -4 -5 -5 -5 -5 -5 -4 -4 -4 -3 -3 -3 -3 -2 -2 -2 -2 -2 -1 -1 -1 -1 -1 -0 -0 0
-6 -6 -6 -6 -5 -4 -3 -5 -5 -5 -6 -6 -6 -6 -6 -5 -5 -4 -4 -5 -5 -5 -5 -5 -5 -4 -4 -4 -4 -3 -3 -3 -2 -2 -2 -2 -2 -2 -1 -1 -1 -1 -0 -0
-6 -6 -6 -6 -6 -5 -4 -5 -6 -6 -6 -6 -7 -6 -6 -5 -5 -5 -4 -5 -5 -6 -6 -6 -5 -5 -5 -4 -4 -4 -4 -3 -3 -2 -2 -2 -2 -2 -2 -2 -1 -1 -1 -1
-7 -7 -7 -7 -6 -5 -4 -5 -5 -6 -5 -6 -6 -7 -6 -6 -7 -6 -5 -5 -6 -6 -6 -6 -5 -5 -5 -5 -5 -4 -4 -4 -3 -3 -3 -3 -3 -2 -2 -2 -2 -2 -1 -1
-8 -8 -8 -7 -7 -6 -6 -6 -6 -5 -5 -5 -6 -6 -6 -7 -6 -6 -6 -6 -6 -6 -6 -6 -6 -5 -5 -5 -5 -5 -5 -4 -4 -4 -3 -3 -3 -3 -3 -2 -2 -2 -2 -1
-8 -8 -8 -8 -7 -6 -6 -7 -6 -6 -5 -5 -5 -5 -6 -6 -6 -6 -6 -6 -6 -6 -6 -6 -6 -6 -6 -6 -6 -5 -5 -5 -5 -4 -4 -4 -4 -3 -3 -3 -3 -2 -2 -2
-8 -7 -8 -7 -6 -6 -6 -6 -5 -5 -5 -5 -6 -6 -6 -6 -6 -6 -6 -6 -6 -6 -6 -6 -6 -6 -6 -6 -6 -6 -6 -5 -5 -5 -4 -4 -4 -4 -4 -3 -3 -3 -3 -2
-8 -8 -8 -8 -8 -7 -6 -5 -5 -5 -5 -6 -6 -6 -6 -6 -6 -7 -7 -7 -7 -7 -7 -7 -7 -6 -6 -6 -6 -6 -6 -6 -6 -5 -5 -5 -5 -5 -4 -4 -4 -3 -3 -3
-8 -9 -9 -8 -8 -7 -6 -5 -5 -6 -6 -6 -6 -6 -6 -7 -7 -7 -7 -7 -7 -7 -7 -7 -7 -7 -7 -7 -6 -6 -6 -6 -6 -6 -6 -6 -5 -5 -5 -4 -4 -4 -4 -4
-9 -9 -8 -8 -7 -7 -6 -5 -6 -6 -6 -6 -6 -7 -7 -7 -7 -7 -7 -7 -7 -7 -8 -7 -7 -7 -7 -7 -7 -7 -7 -7 -6 -6 -6 -6 -6 -6 -5 -5 -5 -4 -4 -4
Wind_Speed
3 4 1 3 4 4 3 4 7 7 4 4 8 11 12 8 6 7 7 6 5 5 4 3 3 2 2 2 2 2 1 2 1 1 1 2 2 2 2 2 2 3 3 4
5 1 4 2 1 1 2 4 7 7 5 4 7 11 10 7 7 7 6 6 6 4 3 2 2 3 3 3 3 3 2 2 2 2 1 2 2 2 2 2 2 2 2 3
3 3 2 0 0 1 3 4 5 6 8 5 5 7 5 3 2 1 2 3 3 3 4 3 3 4 3 4 4 3 3 3 2 2 1 1 1 1 1 2 2 3 3 3
0 3 1 1 1 1 4 3 4 5 3 5 1 5 6 3 2 3 3 2 1 1 3 3 3 2 2 3 3 4 3 3 3 2 2 2 2 2 3 3 2 3 3 2
1 2 1 1 3 1 3 3 4 3 3 5 3 4 7 2 3 4 3 3 1 1 2 2 1 2 2 2 2 3 3 4 3 3 3 2 2 2 2 2 2 3 3 3
1 1 0 1 2 1 2 2 2 1 1 4 4 5 6 2 4 4 3 4 2 2 0 0 1 0 1 2 2 2 3 4 3 3 3 3 3 3 2 2 3 2 2 3
4 3 2 1 2 3 3 3 4 4 2 6 2 3 6 4 3 3 3 4 2 2 1 1 2 2 2 3 3 3 3 4 4 3 3 4 4 4 4 4 3 3 3 3
1 5 2 1 2 2 1 4 4 4 5 5 2 5 5 3 3 3 2 2 3 3 3 3 2 3 3 4 3 3 4 4 4 4 4 4 4 4 3 4 4 4 4 4
2 4 2 2 1 3 2 2 3 3 1 4 5 5 5 2 4 5 4 4 4 4 4 4 3 3 3 4 4 4 4 4 4 4 5 5 4 4 4 4 4 4 4 4
3 3 4 2 1 1 1 3 3 3 2 5 6 4 4 4 4 5 5 5 5 5 6 6 5 4 4 4 4 4 4 4 4 4 5 5 4 4 4 4 5 4 5 4
2 2 4 2 3 4 1 1 2 2 3 3 4 6 3 4 3 3 5 5 5 5 5 6 6 5 4 4 4 4 4 4 4 4 5 4 4 5 4 4 5 5 4 4
2 2 3 5 3 2 3 4 4 3 4 4 3 6 3 2 2 2 4 5 5 5 5 6 7 6 5 5 5 4 5 4 4 5 4 4 4 5 5 5 5 4 5 5
3 3 2 4 3 2 1 2 3 3 2 4 4 7 2 4 4 4 5 6 6 6 6 6 6 6 6 6 6 5 5 6 5 5 5 5 5 5 6 6 5 5 5 5
2 3 5 7 5 2 4 5 3 4 4 5 8 10 8 6 6 7 7 6 6 6 6 6 6 7 7 7 6 6 6 6 6 5 5 6 6 6 6 6 6 5 5 6
3 3 5 7 7 5 7 9 7 8 9 9 9 9 11 7 6 7 6 6 6 7 7 8 8 8 7 8 7 7 7 7 6 5 6 6 6 6 5 6 6 6 6 6
2 2 2 5 5 6 9 11 10 10 9 10 10 11 8 6 5 5 6 6 7 7 8 9 9 9 8 8 9 8 8 8 6 6 6 6 6 6 5 6 5 6 6 6
3 3 1 4 4 4 7 8 8 5 5 6 9 9 6 5 5 5 5 5 6 8 9 10 9 9 8 8 8 8 8 8 6 6 6 6 6 5 6 6 5 6 6 5
5 4 2 2 3 5 7 2 4 5 4 5 6 6 6 6 6 6 4 3 6 8 9 10 9 9 9 8 8 8 8 7 6 6 6 6 6 6 5 5 5 5 5 5
4 5 2 2 3 8 6 2 2 3 5 3 5 7 5 4 4 4 2 3 5 7 8 8 8 9 8 8 8 8 8 7 7 6 6 6 6 6 5 5 5 5 4 5
3 3 3 3 3 6 6 3 1 1 5 3 3 5 4 3 3 4 5 6 8 8 7 8 8 8 8 8 8 7 8 7 8 8 8 7 6 6 6 6 5 4 4 5
2 2 4 4 5 7 5 3 1 2 5 3 3 4 3 3 5 6 7 7 7 7 8 8 7 7 8 8 8 8 8 8 9 9 8 7 6 6 6 5 4 4 4 4
6 5 5 4 5 7 2 2 4 5 3 2 3 3 4 6 6 6 6 7 8 8 8 8 7 8 8 7 7 8 9 9 8 8 8 8 6 5 5 4 4 4 3 4
6 7 5 8 7 3 3 5 4 2 3 4 3 5 4 5 6 6 6 7 7 8 8 7 7 8 8 7 7 8 10 9 9 8 8 8 7 5 4 4 4 3 3 2
4 3 3 5 7 5 5 4 4 4 4 5 5 5 4 5 6 7 7 7 7 7 7 7 7 8 9 8 7 7 9 9 8 8 8 7 6 5 4 4 3 3 3 2
4 4 3 5 6 5 4 4 4 4 4 5 4 4 5 5 6 6 6 7 7 7 7 6 6 8 9 9 9 9 8 8 8 8 7 7 6 5 4 4 3 3 3 3
3 5 5 6 5 4 5 4 4 4 5 6 5 5 4 4 6 6 6 6 6 7 6 7 7 8 9 9 9 8 8 7 7 7 7 6 5 5 4 4 4 6 5 7
Wind_Direction
39 71 175 233 215 220 217 232 262 269 285 280 262 269 274 270 250 248 251 244 229 232 238 229 211 222 211 185 186 196 227 285 302 292 318 302 284 287 294 312 274 241 228 211
44 274 247 239 219 229 249 251 267 287 303 289 277 275 269 258 242 236 237 236 223 233 247 241 229 232 197 194 203 215 217 258 262 244 240 257 257 245 267 315 320 272 238 225
174 244 286 10 304 256 265 233 253 274 308 308 301 293 267 248 239 256 259 245 221 219 230 241 250 222 201 203 210 230 234 246 249 254 233 305 286 290 310 303 295 314 271 225
238 300 326 350 286 233 251 249 266 281 309 293 334 290 281 267 303 300 307 317 279 273 229 236 232 225 226 223 221 222 230 245 237 226 198 226 243 249 261 271 274 299 299 244
286 335 7 276 270 254 239 289 285 269 248 287 269 229 283 303 286 287 293 296 294 290 204 194 203 236 269 276 251 236 237 248 235 225 209 221 257 260 267 279 277 282 303 282
263 299 250 238 292 266 275 351 356 24 80 270 227 195 279 261 257 279 292 303 303 329 298 243 266 300 315 318 297 273 262 259 243 233 223 220 246 251 260 274 265 270 285 295
334 319 330 353 6 1 44 66 11 347 332 253 206 208 251 273 294 272 274 289 299 315 303 318 330 326 313 309 298 275 275 268 247 237 235 228 237 231 227 237 242 252 264 281
335 291 285 347 175 201 208 146 168 229 251 282 289 235 248 296 324 346 344 312 329 328 334 312 292 297 294 290 290 287 279 274 264 247 248 240 240 230 233 238 239 239 246 254
187 263 320 324 299 151 150 192 180 160 268 278 272 286 298 333 352 360 351 347 331 322 319 311 299 301 293 291 290 283 286 276 273 268 253 250 241 235 242 246 243 239 247 256
156 263 290 308 27 10 158 156 110 143 211 265 284 269 260 296 309 325 324 323 321 325 325 325 318 302 295 294 298 293 284 268 267 266 263 259 241 239 238 243 249 246 247 252
129 180 305 333 206 214 147 145 155 175 195 206 269 273 230 231 250 282 297 311 314 315 318 323 321 309 301 309 311 311 298 286 280 273 270 267 253 246 243 244 245 241 247 247
143 138 262 257 261 260 183 185 163 189 245 214 230 268 270 246 267 296 305 313 316 320 327 326 325 326 319 318 316 313 306 283 274 269 267 267 265 254 248 249 247 243 242 243
131 126 330 326 327 349 271 220 197 183 195 213 221 262 322 350 341 327 311 312 321 332 333 332 333 331 325 318 314 311 305 297 283 270 266 266 264 259 252 249 246 242 240 242
122 166 201 232 249 225 260 258 222 182 214 237 237 261 295 314 317 317 313 314 322 323 325 328 327 323 321 320 317 312 308 304 294 279 270 266 262 260 255 248 242 239 237 239
120 214 240 257 269 257 254 260 239 219 221 228 253 257 275 287 287 297 309 322 328 327 328 325 323 320 321 322 322 320 309 305 301 290 277 271 269 264 260 250 244 241 238 241
124 210 275 280 269 265 272 266 250 243 240 245 265 273 277 286 297 310 317 321 324 324 323 321 320 319 321 320 318 317 311 305 301 288 282 281 276 270 262 254 247 247 245 242
175 167 226 274 300 315 276 252 229 228 223 218 244 263 301 306 303 295 302 311 316 321 322 321 317 314 312 311 311 308 307 307 303 292 289 288 280 275 267 261 253 250 249 245
168 162 193 281 348 254 249 252 211 217 249 236 255 279 293 286 289 281 281 299 314 319 320 320 318 314 311 312 314 314 316 314 306 298 295 294 291 281 277 268 260 254 252 246
167 162 178 207 262 275 288 271 189 215 273 245 255 283 296 313 320 297 292 315 307 308 309 307 308 308 310 314 317 322 322 320 316 305 300 300 295 286 283 272 267 264 255 256
90 128 162 187 230 254 263 277 258 145 280 272 252 280 297 343 322 290 315 321 315 314 313 313 313 313 316 317 321 324 322 322 318 312 304 299 295 288 283 277 274 266 255 258
146 161 194 208 237 264 265 270 112 176 266 295 263 273 273 246 246 280 303 306 308 311 312 316 316 314 314 318 322 320 318 314 310 309 310 306 299 293 289 287 286 268 262 263
182 184 199 187 220 256 240 144 189 234 280 280 275 268 261 268 280 291 298 303 310 315 318 321 321 318 318 320 322 320 316 313 316 317 315 310 305 303 305 300 298 285 263 254
201 196 194 200 221 255 199 215 244 260 268 268 264 269 260 272 284 295 299 303 308 310 315 319 318 317 321 323 322 316 316 320 322 321 317 315 313 311 308 301 298 299 290 273
245 195 200 250 263 261 257 258 275 260 254 269 269 272 263 268 281 292 299 305 309 311 313 317 321 321 322 323 322 314 316 320 321 320 317 318 317 317 319 313 307 303 296 290
227 180 214 254 275 300 286 247 255 271 282 290 289 268 257 263 278 282 293 299 303 308 311 315 316 316 315 319 319 320 323 325 324 322 321 323 323 320 321 320 316 311 305 296
204 189 197 237 240 227 266 273 276 279 281 279 277 285 278 259 269 283 291 293 298 305 310 315 316 317 317 319 318 321 323 324 322 323 326 326 327 325 322 321 331 339 338 337
Height
1517 1522 1524 1523 1523 1521 1522 1522 1522 1518 1515 1515 1513 1509 1503 1501 1501 1500 1499 1498 1499 1499 1499 1500 1500 1502 1502 1502 1503 1502 1502 1503 1503 1503 1503 1504 1504 1505 1506 1507 1508 1510 1511 1513
1522 1525 1521 1520 1520 1520 1521 1521 1521 1517 1514 1513 1511 1506 1499 1497 1497 1496 1496 1495 1495 1495 1496 1496 1497 1498 1498 1499 1499 1499 1499 1500 1500 1501 1501 1501 1501 1502 1503 1504 1505 1506 1507 1509
1522 1523 1519 1520 1520 1521 1521 1522 1520 1519 1516 1512 1512 1504 1497 1494 1494 1493 1493 1493 1492 1492 1492 1492 1492 1494 1495 1495 1495 1496 1496 1497 1498 1498 1498 1498 1498 1498 1499 1500 1500 1502 1503 1504
1523 1521 1520 1520 1520 1520 1520 1519 1518 1517 1520 1519 1515 1513 1497 1494 1493 1492 1492 1491 1490 1490 1489 1489 1490 1490 1491 1492 1492 1493 1493 1494 1494 1494 1494 1494 1493 1492 1494 1495 1496 1497 1499 1500
1524 1522 1521 1521 1520 1520 1520 1518 1518 1518 1520 1523 1518 1517 1501 1495 1494 1492 1491 1490 1489 1488 1487 1487 1488 1488 1488 1489 1489 1489 1490 1490 1490 1490 1490 1490 1490 1490 1491 1491 1492 1493 1494 1496
1524 1522 1522 1521 1520 1519 1519 1519 1519 1520 1523 1521 1514 1516 1503 1498 1495 1492 1491 1490 1488 1487 1487 1487 1487 1487 1486 1486 1486 1486 1486 1486 1486 1486 1487 1487 1486 1486 1487 1487 1488 1488 1489 1491
1526 1523 1521 1521 1521 1520 1521 1525 1528 1524 1525 1517 1510 1511 1504 1496 1493 1491 1490 1489 1488 1487 1486 1485 1485 1484 1484 1483 1483 1482 1482 1482 1482 1483 1483 1483 1483 1483 1483 1483 1484 1484 1485 1486
1529 1527 1523 1521 1522 1523 1524 1525 1528 1526 1523 1516 1510 1509 1501 1495 1493 1490 1489 1488 1487 1486 1485 1484 1484 1483 1482 1481 1480 1479 1478 1478 1478 1478 1479 1479 1480 1480 1480 1480 1480 1480 1481 1482
1530 1527 1523 1521 1521 1521 1523 1526 1525 1530 1529 1527 1515 1510 1499 1493 1492 1490 1489 1487 1485 1484 1484 1483 1482 1480 1479 1478 1477 1476 1475 1474 1474 1474 1475 1475 1475 1475 1475 1476 1476 1477 1477 1478
1528 1531 1525 1523 1521 1521 1522 1524 1530 1529 1526 1520 1515 1511 1504 1496 1493 1491 1489 1487 1485 1484 1482 1480 1480 1478 1477 1476 1474 1472 1471 1471 1470 1470 1470 1470 1470 1471 1471 1471 1472 1472 1473 1473
1528 1532 1529 1525 1525 1523 1524 1525 1526 1528 1526 1523 1519 1507 1496 1494 1492 1491 1489 1487 1485 1484 1481 1479 1477 1476 1474 1472 1470 1469 1468 1466 1466 1466 1466 1466 1466 1466 1466 1466 1467 1467 1468 1468
1527 1532 1532 1527 1523 1522 1522 1523 1526 1526 1525 1525 1522 1509 1492 1491 1490 1490 1489 1487 1485 1483 1480 1478 1475 1473 1471 1469 1468 1466 1465 1464 1463 1463 1462 1461 1461 1461 1461 1461 1462 1462 1463 1464
1527 1531 1531 1523 1526 1526 1524 1523 1523 1524 1524 1525 1521 1505 1492 1491 1490 1489 1488 1486 1483 1480 1478 1477 1474 1472 1469 1467 1465 1463 1462 1461 1460 1459 1458 1458 1457 1457 1456 1456 1456 1457 1458 1458
1523 1529 1529 1523 1519 1522 1523 1521 1522 1523 1524 1521 1513 1500 1493 1492 1491 1489 1487 1484 1481 1480 1478 1475 1472 1470 1467 1465 1463 1461 1459 1457 1456 1455 1455 1454 1453 1452 1452 1452 1452 1452 1453 1453
1524 1529 1528 1524 1520 1521 1519 1518 1517 1518 1516 1514 1504 1501 1493 1492 1491 1488 1485 1482 1481 1479 1476 1473 1470 1467 1465 1462 1460 1457 1456 1454 1452 1451 1450 1450 1449 1448 1447 1447 1447 1447 1448 1448
1524 1528 1527 1523 1518 1518 1515 1510 1511 1510 1509 1508 1503 1498 1492 1490 1489 1487 1485 1482 1480 1478 1475 1472 1469 1465 1462 1459 1457 1454 1452 1451 1449 1447 1446 1445 1445 1444 1443 1442 1442 1442 1442 1443
1525 1528 1528 1523 1520 1516 1513 1507 1505 1505 1503 1503 1500 1495 1491 1489 1487 1485 1483 1481 1479 1477 1474 1470 1467 1464 1461 1458 1455 1452 1450 1448 1446 1444 1442 1441 1440 1439 1439 1438 1437 1437 1437 1437
1523 1526 1527 1526 1524 1520 1505 1501 1500 1500 1500 1499 1496 1493 1491 1489 1486 1484 1482 1480 1478 1475 1472 1468 1465 1462 1459 1456 1453 1449 1447 1444 1443 1441 1439 1438 1436 1435 1434 1433 1432 1432 1432 1432
1519 1523 1526 1527 1525 1514 1503 1499 1500 1500 1498 1495 1494 1491 1489 1487 1484 1482 1481 1479 1477 1474 1471 1467 1464 1460 1457 1454 1450 1447 1444 1442 1440 1438 1436 1434 1433 1431 1430 1429 1428 1428 1428 1428
1519 1521 1526 1526 1522 1514 1501 1498 1496 1499 1497 1492 1490 1489 1487 1486 1486 1482 1479 1476 1474 1471 1468 1465 1461 1458 1455 1451 1448 1444 1441 1438 1436 1435 1433 1431 1430 1428 1426 1425 1424 1424 1424 1423
1523 1524 1525 1525 1522 1509 1500 1496 1497 1501 1495 1490 1488 1487 1486 1485 1484 1481 1477 1475 1472 1469 1466 1463 1459 1456 1452 1449 1446 1442 1439 1436 1434 1432 1429 1428 1426 1425 1423 1422 1421 1420 1419 1419
1517 1520 1522 1522 1521 1508 1496 1496 1497 1494 1489 1488 1487 1486 1484 1482 1480 1478 1475 1473 1470 1467 1464 1460 1457 1453 1450 1447 1444 1440 1437 1434 1431 1428 1426 1424 1422 1421 1420 1419 1417 1417 1416 1415
1510 1508 1508 1508 1503 1495 1492 1491 1490 1489 1488 1486 1485 1483 1482 1479 1477 1475 1472 1470 1467 1464 1461 1458 1455 1451 1448 1445 1442 1438 1435 1432 1429 1426 1423 1421 1419 1418 1417 1416 1414 1413 1412 1411
1503 1502 1503 1502 1494 1491 1490 1489 1488 1487 1486 1484 1483 1481 1479 1477 1474 1472 1470 1467 1464 1462 1459 1456 1452 1449 1446 1443 1440 1437 1434 1430 1427 1424 1421 1419 1417 1415 1414 1413 1412 1411 1409 1408
1498 1499 1499 1497 1492 1489 1487 1486 1486 1484 1483 1481 1480 1478 1476 1474 1472 1470 1467 1465 1462 1459 1457 1454 1451 1447 1444 1441 1438 1435 1431 1428 1425 1422 1419 1416 1415 1413 1412 1411 1409 1408 1408 1407
1494 1494 1495 1492 1488 1488 1485 1484 1483 1482 1480 1478 1476 1474 1473 1472 1469 1467 1465 1462 1460 1457 1454 1451 1448 1445 1442 1439 1436 1433 1430 1426 1423 1420 1417 1415 1413 1411 1410 1409 1407 1406 1406 1405